Location: Boston
(42.3580°N, 71.0600°W)
Time: 20:21:05
(UTC-04:00)

OTV 5 (USA 277) - Pass Details

Date: 15 October 2017
Orbit: 404 x 417 km, 43.0° (Epoch: 07 September)

Event Time Altitude Azimuth Distance (km) Brightness Sun altitude
Rises 18:42:45 0° 261° (W) 2,351 ? -8.3°
Reaches altitude 10° 18:44:51 10° 262° (W) 1,489 ? -8.7°
Maximum altitude 18:48:14 87° 351° (N) 421 ? -9.3°
Enters shadow 18:51:00 14° 81° (E) 1,248 ? -9.8°
